Weather History for San Angelo, TX

Change the Weather History Date:

Wednesday, October 9, 2013

  Actual Average Record
Temperature  
Mean Temperature 69 °F 68 °F  
Max Temperature 84 °F 81 °F 97 °F (1960)
Min Temperature 53 °F 56 °F 37 °F (1917)
Degree Days  
Heating Degree Days 0 2  
Month to date heating degree days 10 10  
Since 1 July heating degree days 10 19  
Cooling Degree Days 4 5  
Month to date cooling degree days 62 52  
Year to date cooling degree days 2776 2417  
Growing Degree Days 18 (Base 50)    
Moisture  
Dew Point 50 °F    
Average Humidity 56    
Maximum Humidity 77    
Minimum Humidity 34    
Precipitation  
Precipitation 0.00 in 0.09 in 1.39 in (1961)
Month to date precipitation 0.02 0.78  
Year to date precipitation 16.40 17.31  
Snow  
Snow 0.00 in 0.00 in 0.00 in (2002)
Month to date snowfall 0.0 0.0  
Since 1 July snowfall 0.0 0.0  
Snow Depth 0.00 in    
Sea Level Pressure  
Sea Level Pressure 29.93 in    
Wind  
Wind Speed 8 mph (South)    
Max Wind Speed 21 mph    
Max Gust Speed 29 mph    
Visibility 10 miles    
Events      
T = Trace of Precipitation, MM = Missing Value Source: NWS Daily Summary

Daily Weather History Graph

Daily Weather History Graph

Search for Another Location

Airport:

Trip Planner

Search our weather history database for the weather conditions in past years. The results will help you decide how hot, cold, wet, or windy it might be!

Date:

Astronomy

Oct. 09, 2013 Rise Set
Actual Time 7:41 AM CDT 7:16 PM CDT
Civil Twilight 7:16 AM CDT 7:41 PM CDT
Nautical Twilight 6:48 AM CDT 8:09 PM CDT
Astronomical Twilight 6:20 AM CDT 8:37 PM CDT
Moon 12:23 PM CDT (10/9) 11:07 PM CDT (10/9)
Length of Visible Light 12h 24m
Length of Day
11h 35m
Waxing Crescent, 25% of the Moon is Illuminated
Oct 9
Waxing Crescent
Oct 11
First Quarter
Oct 18
Full
Oct 26
Last Quarter
Nov 3
New

Hourly Weather History & Observations

Time (CDT) Temp. Heat Index Dew Point Humidity Pressure Visibility Wind Dir Wind Speed Gust Speed Precip Events Conditions
12:51 AM 59.0 °F - 43.0 °F 55% 29.93 in 10.0 mi SSW 4.6 mph - N/A   Clear
1:51 AM 59.0 °F - 43.0 °F 55% 29.92 in 10.0 mi SSW 4.6 mph - N/A   Clear
2:51 AM 57.9 °F - 44.1 °F 60% 29.92 in 10.0 mi Calm Calm - N/A   Clear
3:51 AM 59.0 °F - 44.1 °F 58% 29.91 in 10.0 mi SW 4.6 mph - N/A   Clear
4:51 AM 59.0 °F - 44.1 °F 58% 29.92 in 10.0 mi SSW 3.5 mph - N/A   Clear
5:51 AM 55.0 °F - 45.0 °F 69% 29.94 in 10.0 mi WSW 3.5 mph - N/A   Clear
6:51 AM 55.0 °F - 46.0 °F 72% 29.96 in 10.0 mi South 6.9 mph - N/A   Clear
7:51 AM 54.0 °F - 46.9 °F 77% 29.97 in 10.0 mi South 6.9 mph - N/A   Clear
8:51 AM 57.9 °F - 48.9 °F 72% 29.99 in 10.0 mi South 6.9 mph - N/A   Clear
9:51 AM 66.0 °F - 55.0 °F 68% 30.01 in 10.0 mi South 15.0 mph 20.7 mph N/A   Clear
10:51 AM 71.1 °F - 54.0 °F 55% 30.00 in 10.0 mi South 18.4 mph 27.6 mph N/A   Clear
11:51 AM 75.0 °F - 54.0 °F 48% 29.99 in 10.0 mi South 15.0 mph 24.2 mph N/A   Clear
12:51 PM 78.1 °F - 55.0 °F 45% 29.96 in 10.0 mi South 13.8 mph - N/A   Clear
1:51 PM 80.1 °F 80.0 °F 54.0 °F 40% 29.93 in 10.0 mi South 13.8 mph - N/A   Clear
2:51 PM 82.9 °F 82.0 °F 55.0 °F 38% 29.90 in 10.0 mi SSE 15.0 mph 20.7 mph N/A   Clear
3:51 PM 84.0 °F 82.6 °F 54.0 °F 35% 29.88 in 10.0 mi South 9.2 mph 23.0 mph N/A   Clear
4:51 PM 82.9 °F 81.8 °F 53.1 °F 36% 29.88 in 10.0 mi South 13.8 mph 20.7 mph N/A   Clear
5:51 PM 82.9 °F 81.8 °F 53.1 °F 36% 29.88 in 10.0 mi South 10.4 mph - N/A   Clear
6:51 PM 80.1 °F 79.9 °F 53.1 °F 39% 29.88 in 10.0 mi South 9.2 mph - N/A   Clear
7:51 PM 75.9 °F - 54.0 °F 46% 29.90 in 10.0 mi South 6.9 mph - N/A   Clear
8:51 PM 73.0 °F - 54.0 °F 51% 29.91 in 10.0 mi SSE 4.6 mph - N/A   Clear
9:51 PM 66.9 °F - 54.0 °F 63% 29.93 in 10.0 mi SE 4.6 mph - N/A   Clear
10:51 PM 66.0 °F - 54.0 °F 65% 29.94 in 10.0 mi SSE 3.5 mph - N/A   Clear
11:51 PM 69.1 °F - 54.0 °F 58% 29.94 in 10.0 mi SSE 5.8 mph - N/A   Clear